| time (UTC) | temp F | wind direction | speed MPH | gust MPH | rain 1hr in | rain 24hr in | rain mn in | humidity % | barometer mb |
| 20260504050507 | 60 | 1 | 3.0 | 9.0 | 0.00 | 0.00 | 0.00 | 31 | 1011.1 |
| 20260504050007 | 60 | 278 | 3.0 | 6.0 | 0.00 | 0.00 | 0.00 | 29 | 1010.9 |
| 20260504045506 | 60 | 252 | 4.0 | 6.0 | 0.00 | 0.00 | 0.00 | 29 | 1010.6 |
| 20260504045006 | 60 | 250 | 3.0 | 6.0 | 0.00 | 0.00 | 0.00 | 29 | 1010.6 |
| 20260504044506 | 61 | 248 | 3.0 | 6.0 | 0.00 | 0.00 | 0.00 | 29 | 1010.7 |
| 20260504044006 | 61 | 248 | 4.0 | 7.0 | 0.00 | 0.00 | 0.00 | 29 | 1010.6 |
| 20260504043505 | 61 | 246 | 4.0 | 7.0 | 0.00 | 0.00 | 0.00 | 29 | 1010.8 |
| 20260504043009 | 60 | 231 | 3.0 | 6.0 | 0.00 | 0.00 | 0.00 | 31 | 1010.9 |
| 20260504042507 | 60 | 224 | 3.0 | 6.0 | 0.00 | 0.00 | 0.00 | 31 | 1010.8 |
| 20260504042009 | 61 | 224 | 3.0 | 7.0 | 0.00 | 0.00 | 0.00 | 30 | 1010.9 |
| 20260504041509 | 61 | 222 | 4.0 | 7.0 | 0.00 | 0.00 | 0.00 | 30 | 1010.9 |
| 20260504041008 | 61 | 220 | 4.0 | 7.0 | 0.00 | 0.00 | 0.00 | 33 | 1011.0 |
| 20260504040508 | 61 | 221 | 4.0 | 8.0 | 0.00 | 0.00 | 0.00 | 33 | 1011.1 |
| 20260504040011 | 61 | 225 | 5.0 | 8.0 | 0.00 | 0.00 | 0.00 | 30 | 1011.1 |
| 20260504035513 | 61 | 219 | 4.0 | 7.0 | 0.00 | 0.00 | 0.00 | 30 | 1011.2 |
| 20260504035011 | 61 | 220 | 4.0 | 7.0 | 0.00 | 0.00 | 0.00 | 30 | 1011.2 |
| 20260504034519 | 61 | 220 | 4.0 | 6.0 | 0.00 | 0.00 | 0.00 | 29 | 1011.3 |
| 20260504034011 | 61 | 217 | 4.0 | 6.0 | 0.00 | 0.00 | 0.00 | 31 | 1011.3 |
| 20260504033511 | 61 | 222 | 4.0 | 6.0 | 0.00 | 0.00 | 0.00 | 31 | 1011.2 |
| 20260504033020 | 62 | 221 | 4.0 | 6.0 | 0.00 | 0.00 | 0.00 | 31 | 1011.3 |
| 20260504032509 | 62 | 220 | 4.0 | 6.0 | 0.00 | 0.00 | 0.00 | 29 | 1011.3 |
| 20260504032009 | 63 | 216 | 4.0 | 6.0 | 0.00 | 0.00 | 0.00 | 28 | 1011.3 |
| 20260504031512 | 63 | 216 | 4.0 | 6.0 | 0.00 | 0.00 | 0.00 | 27 | 1011.3 |
| 20260504031011 | 63 | 214 | 4.0 | 9.0 | 0.00 | 0.00 | 0.00 | 27 | 1011.3 |
| 20260504030512 | 63 | 210 | 4.0 | 9.0 | 0.00 | 0.00 | 0.00 | 28 | 1011.2 |
| 20260504030013 | 62 | 214 | 4.0 | 6.0 | 0.00 | 0.00 | 0.00 | 28 | 1011.1 |
| 20260504025514 | 63 | 219 | 4.0 | 6.0 | 0.00 | 0.00 | 0.00 | 28 | 1011.2 |
| 20260504025015 | 63 | 252 | 3.0 | 6.0 | 0.00 | 0.00 | 0.00 | 28 | 1011.1 |
| 20260504024535 | 63 | 253 | 3.0 | 6.0 | 0.00 | 0.00 | 0.00 | 28 | 1011.1 |
| 20260504024017 | 63 | 255 | 3.0 | 5.0 | 0.00 | 0.00 | 0.00 | 27 | 1011.1 |
| 20260504023515 | 63 | 255 | 3.0 | 4.0 | 0.00 | 0.00 | 0.00 | 27 | 1011.1 |
| 20260504023014 | 64 | 257 | 2.0 | 4.0 | 0.00 | 0.00 | 0.00 | 29 | 1011.1 |
| 20260504022514 | 65 | 257 | 2.0 | 7.0 | 0.00 | 0.00 | 0.00 | 26 | 1011.0 |
| 20260504022017 | 65 | 257 | 2.0 | 7.0 | 0.00 | 0.00 | 0.00 | 24 | 1010.9 |
| 20260504021513 | 65 | 257 | 3.0 | 6.0 | 0.00 | 0.00 | 0.00 | 24 | 1011.0 |
| 20260504021013 | 64 | 328 | 2.0 | 6.0 | 0.00 | 0.00 | 0.00 | 25 | 1011.0 |
| 20260504020513 | 65 | 1 | 0.0 | 3.0 | 0.00 | 0.00 | 0.00 | 27 | 1011.0 |
| 20260504020017 | 66 | 1 | 1.0 | 3.0 | 0.00 | 0.00 | 0.00 | 23 | 1011.0 |
| 20260504015518 | 66 | 1 | 0.0 | 6.0 | 0.00 | 0.00 | 0.00 | 23 | 1010.9 |
| 20260504015016 | 66 | 1 | 1.0 | 6.0 | 0.00 | 0.00 | 0.00 | 23 | 1010.9 |
| 20260504014519 | 66 | 295 | 0.0 | 5.0 | 0.00 | 0.00 | 0.00 | 24 | 1011.1 |
| 20260504014018 | 67 | 295 | 1.0 | 7.0 | 0.00 | 0.00 | 0.00 | 25 | 1011.3 |
| 20260504013516 | 67 | 259 | 2.0 | 7.0 | 0.00 | 0.00 | 0.00 | 23 | 1011.0 |
| 20260504013112 | 67 | 255 | 0.0 | 5.0 | 0.00 | 0.00 | 0.00 | 22 | 1011.1 |
| 20260504012600 | 67 | 253 | 1.0 | 5.0 | 0.00 | 0.00 | 0.00 | 22 | 1011.2 |
| 20260504012101 | 67 | 252 | 2.0 | 6.0 | 0.00 | 0.00 | 0.00 | 23 | 1011.1 |
| 20260504011512 | 67 | 296 | 1.0 | 15.0 | 0.00 | 0.00 | 0.00 | 22 | 1011.3 |
| 20260504011012 | 67 | 295 | 1.0 | 20.0 | 0.00 | 0.00 | 0.00 | 22 | 1011.3 |
| 20260504010517 | 67 | 290 | 7.0 | 20.0 | 0.00 | 0.00 | 0.00 | 23 | 1011.7 |
| 20260504010011 | 66 | 248 | 5.0 | 0.0 | 0.00 | 0.00 | 0.00 | 23 | 1011.5 |
| 20260504005510 | 67 | 247 | 5.0 | 8.0 | 0.00 | 0.00 | 0.00 | 24 | 1011.7 |
| 20260504005010 | 67 | 94 | 4.0 | 8.0 | 0.00 | 0.00 | 0.00 | 22 | 1011.5 |
| 20260504004533 | 66 | 305 | 4.0 | 6.0 | 0.00 | 0.00 | 0.00 | 24 | 1011.5 |
| 20260504004014 | 66 | 61 | 2.0 | 8.0 | 0.00 | 0.00 | 0.00 | 24 | 1011.3 |
| 20260504003514 | 66 | 33 | 3.0 | 9.0 | 0.00 | 0.00 | 0.00 | 24 | 1011.5 |
| 20260504003014 | 65 | 159 | 1.0 | 18.0 | 0.00 | 0.00 | 0.00 | 25 | 1011.8 |
| 20260504002514 | 65 | 89 | 4.0 | 24.0 | 0.00 | 0.00 | 0.00 | 28 | 1012.1 |
| 20260504002014 | 64 | 212 | 10.0 | 42.0 | 0.00 | 0.00 | 0.00 | 30 | 1012.5 |
| 20260504001513 | 66 | 207 | 26.0 | 42.0 | 0.00 | 0.00 | 0.00 | 30 | 1012.9 |
| 20260504001015 | 69 | 298 | 5.0 | 8.0 | 0.00 | 0.00 | 0.00 | 20 | 1012.1 |
| 20260504000512 | 69 | 282 | 5.0 | 7.0 | 0.00 | 0.00 | 0.00 | 20 | 1011.9 |
| 20260504000017 | 69 | 244 | 1.0 | 5.0 | 0.00 | 0.00 | 0.00 | 20 | 1011.8 |
| 20260503235516 | 69 | 244 | 1.0 | 4.0 | 0.00 | 0.00 | 0.00 | 19 | 1011.7 |
| 20260503235016 | 69 | 243 | 0.0 | 4.0 | 0.00 | 0.00 | 0.00 | 20 | 1011.5 |
| 20260503234514 | 69 | 243 | 0.0 | 5.0 | 0.00 | 0.00 | 0.00 | 20 | 1011.5 |
| 20260503234014 | 69 | 243 | 0.0 | 5.0 | 0.00 | 0.00 | 0.00 | 19 | 1011.5 |
| 20260503233514 | 69 | 243 | 2.0 | 6.0 | 0.00 | 0.00 | 0.00 | 19 | 1011.5 |
| 20260503233018 | 69 | 243 | 2.0 | 8.0 | 0.00 | 0.00 | 0.00 | 21 | 1011.6 |
| 20260503232517 | 69 | 346 | 2.0 | 8.0 | 0.00 | 0.00 | 0.00 | 19 | 1011.8 |
| 20260503232017 | 69 | 353 | 4.0 | 8.0 | 0.00 | 0.00 | 0.00 | 19 | 1011.8 |
| 20260503231518 | 69 | 342 | 1.0 | 4.0 | 0.00 | 0.00 | 0.00 | 19 | 1011.9 |
| 20260503231021 | 69 | 342 | 1.0 | 5.0 | 0.00 | 0.00 | 0.00 | 20 | 1011.8 |
| 20260503230517 | 70 | 341 | 2.0 | 5.0 | 0.00 | 0.00 | 0.00 | 20 | 1011.7 |
| 20260503230017 | 70 | 20 | 1.0 | 4.0 | 0.00 | 0.00 | 0.00 | 19 | 1011.6 |
| 20260503225516 | 69 | 22 | 0.0 | 7.0 | 0.00 | 0.00 | 0.00 | 19 | 1011.6 |
| 20260503225016 | 69 | 21 | 2.0 | 12.0 | 0.00 | 0.00 | 0.00 | 20 | 1011.6 |
| 20260503224520 | 69 | 28 | 3.0 | 12.0 | 0.00 | 0.00 | 0.00 | 20 | 1011.6 |
| 20260503224019 | 69 | 74 | 5.0 | 16.0 | 0.00 | 0.00 | 0.00 | 20 | 1011.6 |
| 20260503223521 | 70 | 15 | 6.0 | 18.0 | 0.00 | 0.00 | 0.00 | 19 | 1011.7 |
| 20260503223020 | 70 | 314 | 11.0 | 18.0 | 0.00 | 0.00 | 0.00 | 19 | 1011.8 |
| 20260503222519 | 70 | 291 | 5.0 | 27.0 | 0.00 | 0.00 | 0.00 | 17 | 1011.8 |
| 20260503222020 | 71 | 260 | 13.0 | 27.0 | 0.00 | 0.00 | 0.00 | 17 | 1011.9 |
| 20260503221524 | 71 | 240 | 8.0 | 15.0 | 0.00 | 0.00 | 0.00 | 17 | 1011.5 |
| 20260503221027 | 72 | 248 | 8.0 | 16.0 | 0.00 | 0.00 | 0.00 | 16 | 1011.6 |
| 20260503220524 | 72 | 246 | 10.0 | 16.0 | 0.00 | 0.00 | 0.00 | 16 | 1011.6 |
| 20260503220025 | 72 | 226 | 7.0 | 14.0 | 0.00 | 0.00 | 0.00 | 16 | 1011.6 |
| 20260503215524 | 73 | 228 | 9.0 | 14.0 | 0.00 | 0.00 | 0.00 | 17 | 1011.7 |
| 20260503215023 | 73 | 240 | 7.0 | 13.0 | 0.00 | 0.00 | 0.00 | 17 | 1011.8 |
| 20260503214522 | 73 | 293 | 6.0 | 14.0 | 0.00 | 0.00 | 0.00 | 15 | 1011.9 |
| 20260503214021 | 73 | 340 | 6.0 | 14.0 | 0.00 | 0.00 | 0.00 | 15 | 1011.9 |
| 20260503213520 | 73 | 248 | 7.0 | 13.0 | 0.00 | 0.00 | 0.00 | 14 | 1011.9 |
| 20260503213007 | 74 | 254 | 4.0 | 10.0 | 0.00 | 0.00 | 0.00 | 14 | 1011.9 |
| 20260503212505 | 75 | 278 | 3.0 | 8.0 | 0.00 | 0.00 | 0.00 | 14 | 1011.9 |
| 20260503212005 | 75 | 22 | 3.0 | 8.0 | 0.00 | 0.00 | 0.00 | 14 | 1011.9 |
| 20260503211535 | 76 | 357 | 2.0 | 19.0 | 0.00 | 0.00 | 0.00 | 14 | 1012.0 |
| 20260503211024 | 76 | 355 | 8.0 | 19.0 | 0.00 | 0.00 | 0.00 | 13 | 1012.1 |
| 20260503210524 | 76 | 260 | 3.0 | 13.0 | 0.00 | 0.00 | 0.00 | 13 | 1012.2 |
| 20260503210009 | 75 | 360 | 7.0 | 14.0 | 0.00 | 0.00 | 0.00 | 14 | 1012.2 |
| 20260503205513 | 75 | 285 | 10.0 | 14.0 | 0.00 | 0.00 | 0.00 | 14 | 1012.2 |
| 20260503205008 | 74 | 269 | 6.0 | 16.0 | 0.00 | 0.00 | 0.00 | 14 | 1012.3 |
| 20260503204509 | 76 | 276 | 7.0 | 16.0 | 0.00 | 0.00 | 0.00 | 14 | 1012.5 |
| 20260503204006 | 75 | 349 | 4.0 | 17.0 | 0.00 | 0.00 | 0.00 | 14 | 1012.6 |
| 20260503203507 | 74 | 300 | 6.0 | 17.0 | 0.00 | 0.00 | 0.00 | 14 | 1012.7 |
| 20260503203006 | 75 | 353 | 4.0 | 10.0 | 0.00 | 0.00 | 0.00 | 15 | 1012.7 |
| 20260503202505 | 75 | 21 | 3.0 | 17.0 | 0.00 | 0.00 | 0.00 | 15 | 1012.8 |
| 20260503202005 | 75 | 283 | 8.0 | 17.0 | 0.00 | 0.00 | 0.00 | 13 | 1012.9 |
| 20260503201509 | 76 | 336 | 2.0 | 11.0 | 0.00 | 0.00 | 0.00 | 15 | 1012.8 |
| 20260503201008 | 74 | 295 | 4.0 | 14.0 | 0.00 | 0.00 | 0.00 | 16 | 1012.9 |
| 20260503200508 | 74 | 293 | 8.0 | 16.0 | 0.00 | 0.00 | 0.00 | 14 | 1013.0 |
| 20260503200008 | 75 | 281 | 8.0 | 16.0 | 0.00 | 0.00 | 0.00 | 14 | 1013.0 |
| 20260503195507 | 75 | 342 | 6.0 | 15.0 | 0.00 | 0.00 | 0.00 | 13 | 1013.0 |
| 20260503195006 | 77 | 280 | 6.0 | 10.0 | 0.00 | 0.00 | 0.00 | 14 | 1013.2 |
| 20260503194508 | 76 | 321 | 6.0 | 13.0 | 0.00 | 0.00 | 0.00 | 14 | 1013.2 |
| 20260503194007 | 75 | 348 | 6.0 | 24.0 | 0.00 | 0.00 | 0.00 | 14 | 1013.2 |
| 20260503193510 | 74 | 300 | 11.0 | 24.0 | 0.00 | 0.00 | 0.00 | 14 | 1013.3 |
| 20260503193029 | 74 | 360 | 5.0 | 12.0 | 0.00 | 0.00 | 0.00 | 15 | 1013.4 |
| 20260503192510 | 74 | 356 | 5.0 | 15.0 | 0.00 | 0.00 | 0.00 | 16 | 1013.5 |
| 20260503192010 | 73 | 354 | 7.0 | 20.0 | 0.00 | 0.00 | 0.00 | 15 | 1013.7 |
| 20260503191514 | 73 | 300 | 9.0 | 21.0 | 0.00 | 0.00 | 0.00 | 14 | 1013.9 |
| 20260503191011 | 74 | 303 | 8.0 | 21.0 | 0.00 | 0.00 | 0.00 | 14 | 1013.9 |
| 20260503190512 | 74 | 291 | 10.0 | 18.0 | 0.00 | 0.00 | 0.00 | 15 | 1014.0 |
| 20260503190024 | 74 | 290 | 7.0 | 18.0 | 0.00 | 0.00 | 0.00 | 14 | 1014.0 |
| 20260503185512 | 74 | 285 | 10.0 | 18.0 | 0.00 | 0.00 | 0.00 | 14 | 1014.2 |
| 20260503185012 | 74 | 302 | 10.0 | 19.0 | 0.00 | 0.00 | 0.00 | 13 | 1014.2 |
| 20260503184516 | 74 | 293 | 9.0 | 19.0 | 0.00 | 0.00 | 0.00 | 14 | 1014.2 |
| 20260503184010 | 74 | 256 | 12.0 | 19.0 | 0.00 | 0.00 | 0.00 | 14 | 1014.4 |
| 20260503183510 | 73 | 310 | 11.0 | 23.0 | 0.00 | 0.00 | 0.00 | 14 | 1014.5 |
| 20260503183010 | 73 | 252 | 12.0 | 23.0 | 0.00 | 0.00 | 0.00 | 13 | 1014.5 |
| 20260503182514 | 73 | 254 | 10.0 | 18.0 | 0.00 | 0.00 | 0.00 | 14 | 1014.7 |
| 20260503182011 | 72 | 256 | 12.0 | 19.0 | 0.00 | 0.00 | 0.00 | 14 | 1014.6 |
| 20260503181512 | 72 | 261 | 9.0 | 19.0 | 0.00 | 0.00 | 0.00 | 14 | 1014.7 |
| 20260503181014 | 72 | 265 | 9.0 | 19.0 | 0.00 | 0.00 | 0.00 | 14 | 1014.9 |
| 20260503180513 | 72 | 256 | 9.0 | 19.0 | 0.00 | 0.00 | 0.00 | 15 | 1015.0 |
| 20260503180012 | 72 | 282 | 8.0 | 19.0 | 0.00 | 0.00 | 0.00 | 14 | 1015.1 |
| 20260503175509 | 72 | 269 | 11.0 | 19.0 | 0.00 | 0.00 | 0.00 | 14 | 1015.2 |
| 20260503175008 | 71 | 265 | 11.0 | 18.0 | 0.00 | 0.00 | 0.00 | 14 | 1015.3 |
| 20260503174513 | 70 | 263 | 10.0 | 15.0 | 0.00 | 0.00 | 0.00 | 14 | 1015.3 |
| 20260503174011 | 70 | 253 | 10.0 | 15.0 | 0.00 | 0.00 | 0.00 | 15 | 1015.4 |
| 20260503173510 | 70 | 270 | 10.0 | 15.0 | 0.00 | 0.00 | 0.00 | 17 | 1015.5 |
| 20260503173017 | 70 | 282 | 8.0 | 16.0 | 0.00 | 0.00 | 0.00 | 16 | 1015.6 |
| 20260503172509 | 69 | 260 | 10.0 | 18.0 | 0.00 | 0.00 | 0.00 | 16 | 1015.6 |
| 20260503172010 | 69 | 245 | 10.0 | 18.0 | 0.00 | 0.00 | 0.00 | 16 | 1015.6 |
| 20260503171509 | 69 | 245 | 6.0 | 16.0 | 0.00 | 0.00 | 0.00 | 18 | 1015.8 |
| 20260503171012 | 69 | 253 | 7.0 | 16.0 | 0.00 | 0.00 | 0.00 | 17 | 1015.8 |
| 20260503170508 | 69 | 301 | 9.0 | 15.0 | 0.00 | 0.00 | 0.00 | 16 | 1015.9 |
| 20260503151013 | 59 | 205 | 4.0 | 10.0 | 0.00 | 0.00 | 0.00 | 34 | 1016.8 |
| 20260503150514 | 59 | 194 | 6.0 | 10.0 | 0.00 | 0.00 | 0.00 | 33 | 1016.8 |
| 20260503131013 | 51 | 179 | 4.0 | 8.0 | 0.00 | 0.00 | 0.00 | 43 | 1016.8 |
| 20260503130513 | 51 | 219 | 2.0 | 5.0 | 0.00 | 0.00 | 0.00 | 43 | 1016.8 |
| 20260503110509 | 48 | 182 | 2.0 | 6.0 | 0.00 | 0.00 | 0.00 | 39 | 1016.1 |
| 20260503090508 | 47 | 195 | 3.0 | 5.0 | 0.00 | 0.00 | 0.00 | 34 | 1016.4 |
| 20260503081509 | 47 | 198 | 4.0 | 7.0 | 0.00 | 0.00 | 0.00 | 35 | 1016.5 |
| 20260503081007 | 46 | 192 | 3.0 | 6.0 | 0.00 | 0.00 | 0.00 | 36 | 1016.6 |
| 20260503080507 | 46 | 159 | 3.0 | 5.0 | 0.00 | 0.00 | 0.00 | 37 | 1016.7 |
| 20260503072512 | 47 | 103 | 1.0 | 4.0 | 0.00 | 0.00 | 0.00 | 31 | 1016.9 |
| 20260503072010 | 46 | 102 | 1.0 | 2.0 | 0.00 | 0.00 | 0.00 | 32 | 1017.0 |
| 20260503071530 | 45 | 102 | 0.0 | 2.0 | 0.00 | 0.00 | 0.00 | 34 | 1017.0 |
| 20260503071015 | 45 | 102 | 0.0 | 3.0 | 0.00 | 0.00 | 0.00 | 37 | 1017.0 |
| 20260503070515 | 45 | 102 | 1.0 | 3.0 | 0.00 | 0.00 | 0.00 | 39 | 1017.0 |
| 20260503055015 | 50 | 102 | 0.0 | 2.0 | 0.00 | 0.00 | 0.00 | 36 | 1017.1 |
| 20260503054528 | 50 | 102 | 0.0 | 1.0 | 0.00 | 0.00 | 0.00 | 34 | 1017.1 |
| 20260503054020 | 49 | 102 | 0.0 | 1.0 | 0.00 | 0.00 | 0.00 | 36 | 1017.0 |
| 20260503053516 | 49 | 102 | 0.0 | 1.0 | 0.00 | 0.00 | 0.00 | 35 | 1017.1 |
| 20260503053014 | 49 | 102 | 0.0 | 0.0 | 0.00 | 0.00 | 0.00 | 37 | 1017.2 |
| 20260503052513 | 49 | 102 | 0.0 | 1.0 | 0.00 | 0.00 | 0.00 | 38 | 1017.1 |
| 20260503052018 | 49 | 102 | 0.0 | 3.0 | 0.00 | 0.00 | 0.00 | 37 | 1017.1 |
| 20260503051517 | 49 | 102 | 0.0 | 4.0 | 0.00 | 0.00 | 0.00 | 41 | 1017.2 |
| 20260503051018 | 50 | 101 | 2.0 | 4.0 | 0.00 | 0.00 | 0.00 | 36 | 1017.2 |